IK2CHZ-3 Weather Reports


time (UTC)temp
F
wind
direction
speed
knots
gust
knots
rain 1hr
in
rain 24hr
in
rain mn
in
humidity
%
barometer
mb
20260507192320 68 219 0.0 0.0 0.00 0.00 0.00 60 1012.7
20260507191219 69 219 0.0 0.0 0.00 0.00 0.00 59 1012.6
20260507190120 69 219 0.0 0.0 0.00 0.00 0.00 58 1012.5
20260507185020 69 219 0.0 0.0 0.00 0.00 0.00 56 1012.6
20260507183920 70 219 0.0 0.0 0.00 0.00 0.00 56 1012.5
20260507182818 70 219 0.0 0.0 0.00 0.00 0.00 55 1012.5
20260507181719 70 219 0.0 0.0 0.00 0.00 0.00 54 1012.4
20260507180618 70 219 0.0 0.0 0.00 0.00 0.00 54 1012.2
20260507175519 70 219 1.7 1.7 0.00 0.00 0.00 55 1012.0
20260507174420 71 215 1.7 2.6 0.00 0.00 0.00 54 1011.9
20260507173319 71 215 0.9 2.6 0.00 0.00 0.00 54 1011.8
20260507172220 71 216 2.6 2.6 0.00 0.00 0.00 53 1011.8
20260507171119 71 221 0.9 2.6 0.00 0.00 0.00 52 1011.8
20260507170018 71 210 2.6 2.6 0.00 0.00 0.00 52 1011.8
20260507164919 72 230 2.6 2.6 0.00 0.00 0.00 51 1011.6
20260507163819 71 214 2.6 4.3 0.00 0.00 0.00 52 1011.6
20260507162720 72 257 4.3 5.2 0.00 0.00 0.00 51 1011.5
20260507161618 71 225 1.7 2.6 0.00 0.00 0.00 54 1011.6
20260507160519 72 233 5.2 6.1 0.00 0.00 0.00 51 1011.6
20260507155418 71 224 5.2 6.1 0.00 0.00 0.00 52 1011.6
20260507154319 72 256 2.6 5.2 0.00 0.00 0.00 52 1011.5
20260507153219 71 260 5.2 7.0 0.00 0.00 0.00 52 1011.7
20260507152120 71 226 1.7 4.3 0.00 0.00 0.00 52 1011.8
20260507151018 71 184 2.6 5.2 0.00 0.00 0.00 54 1011.7
20260507145919 72 276 1.7 4.3 0.00 0.00 0.00 52 1011.8
20260507144818 72 198 1.7 2.6 0.00 0.00 0.00 52 1011.8
20260507143720 70 298 1.7 2.6 0.00 0.00 0.00 53 1011.9
20260507142619 70 266 0.9 1.7 0.00 0.00 0.00 53 1012.0
20260507141520 70 281 2.6 2.6 0.00 0.00 0.00 53 1012.0
20260507140419 70 268 2.6 4.3 0.00 0.00 0.00 54 1012.0
20260507135318 71 249 4.3 7.8 0.00 0.00 0.00 54 1012.1
20260507134219 70 223 5.2 7.0 0.00 0.00 0.00 55 1012.1
20260507133119 70 301 4.3 6.1 0.00 0.00 0.00 54 1012.2
20260507132019 70 294 2.6 4.3 0.00 0.00 0.00 55 1012.3
20260507130919 70 315 2.6 4.3 0.00 0.00 0.00 54 1012.5
20260507125820 70 243 2.6 4.3 0.00 0.00 0.00 53 1012.4
20260507124718 71 264 1.7 5.2 0.00 0.00 0.00 54 1012.5
20260507123618 69 254 1.7 2.6 0.00 0.00 0.00 54 1012.7
20260507122518 69 274 4.3 8.7 0.00 0.00 0.00 55 1012.6
20260507121419 68 258 1.7 2.6 0.00 0.00 0.00 57 1012.7
20260507120320 69 279 2.6 2.6 0.00 0.00 0.00 57 1012.8
20260507115219 69 254 2.6 7.8 0.00 0.00 0.00 57 1012.9
20260507114120 69 230 2.6 2.6 0.00 0.00 0.00 57 1013.0
20260507113019 68 339 1.7 4.3 0.00 0.00 0.00 59 1013.1
20260507111919 69 336 1.7 4.3 0.00 0.00 0.00 60 1013.2
20260507110818 68 288 4.3 7.8 0.00 0.00 0.00 58 1013.3
20260507105719 67 271 2.6 5.2 0.00 0.00 0.00 57 1013.4
20260507104620 67 278 2.6 4.3 0.00 0.00 0.00 57 1013.5
20260507103519 67 325 1.7 2.6 0.00 0.00 0.00 61 1013.5
20260507102420 66 326 1.7 4.3 0.00 0.00 0.00 61 1013.6
20260507101320 66 310 2.6 2.6 0.00 0.00 0.00 63 1013.6
20260507100218 66 345 0.9 2.6 0.00 0.00 0.00 65 1013.6
20260507095119 65 358 0.0 2.6 0.00 0.00 0.00 67 1013.7
20260507094019 65 327 0.9 1.7 0.00 0.00 0.00 68 1013.8
20260507092920 64 347 0.9 2.6 0.00 0.05 0.00 70 1013.7
20260507091819 63 305 0.9 2.6 0.00 0.07 0.00 70 1013.8
20260507090719 62 304 1.7 4.3 0.00 0.09 0.00 72 1013.6
20260507085619 63 319 1.7 2.6 0.00 0.18 0.00 74 1013.7
20260507084519 64 301 2.6 6.1 0.00 0.21 0.00 71 1013.6
20260507083420 64 281 0.9 1.7 0.00 0.24 0.00 69 1013.4
20260507082319 64 304 1.7 2.6 0.00 0.25 0.00 67 1013.4
20260507081220 63 318 0.9 2.6 0.00 0.27 0.00 69 1013.5
20260507080119 63 30 0.0 0.0 0.00 0.29 0.00 68 1013.4
20260507075020 62 30 0.9 2.6 0.00 0.29 0.00 72 1013.3
20260507073918 61 355 0.0 0.0 0.00 0.29 0.00 75 1013.2
20260507072819 60 355 0.0 0.0 0.00 0.29 0.00 77 1013.2
20260507071718 60 355 0.0 0.0 0.00 0.29 0.00 79 1013.1
20260507070619 59 355 0.9 1.7 0.00 0.30 0.00 80 1013.0
20260507065520 59 355 0.0 1.7 0.00 0.30 0.00 81 1012.9
20260507064419 58 355 0.0 0.0 0.00 0.31 0.00 82 1012.8
20260506231318 57 355 0.9 2.6 0.00 0.57 0.00 81 1010.6
20260506230219 57 355 0.9 1.7 0.00 0.57 0.00 80 1010.5
20260506225120 57 0 0.9 2.6 0.00 0.57 0.00 80 1010.4
20260506224019 57 0 0.9 1.7 0.00 0.57 0.00 80 1010.4
20260506222920 57 11 0.9 1.7 0.00 0.57 0.00 80 1010.5
20260506221818 57 13 0.9 1.7 0.00 0.57 0.00 80 1010.7
20260506220718 58 13 0.0 0.0 0.00 0.57 0.00 78 1010.6
20260506215619 58 13 0.0 0.9 0.00 0.57 0.57 77 1010.5
20260506214520 58 13 0.9 0.9 0.00 0.57 0.57 76 1010.3
20260506213420 59 19 0.9 1.7 0.00 0.57 0.57 75 1010.4
20260506212319 58 23 1.7 2.6 0.00 0.57 0.57 76 1010.4
20260506211219 58 16 0.9 2.6 0.00 0.57 0.57 77 1010.3
20260506210118 58 10 0.9 2.6 0.00 0.57 0.57 78 1010.2
20260506205019 58 10 1.7 4.3 0.00 0.58 0.57 78 1010.3
20260506203918 58 11 0.9 2.6 0.00 0.59 0.57 77 1010.2
20260506202819 58 10 2.6 4.3 0.00 0.62 0.57 77 1010.1
20260506201720 58 3 2.6 4.3 0.00 0.63 0.57 77 1009.9
20260506200620 58 10 2.6 4.3 0.00 0.69 0.57 78 1009.9
20260506195518 57 354 2.6 5.2 0.00 0.69 0.57 81 1010.0
20260506194419 57 349 2.6 4.3 0.00 0.69 0.57 82 1009.9